sat.trackr.live / text

‹ back to catalog

EXO-0

NORAD 59175 · 2023-174DK

PAYLOAD ACTIVE UNKNOWN

§ Identity

Operator
Country
FR
Launch date
2023-11-11
Launch site
AFWTR
Launch vehicle
Mass (kg)
RCS (m²)

External: N2YO · Heavens-Above · Gunter

§ Orbital elements

Epoch: 2026-09-22T16:39:37.092384Z

Period
93.74 min
Inclination
97.3760°
Eccentricity
0.0009001
Mean motion
15.36168590 rev/d
Perigee alt
451.3 km
Apogee alt
463.6 km
Semi-major
6,835.6 km
B*
1.9183e-4
RAAN
345.9937°
Arg perigee
171.4346°
Mean anomaly
188.7053°
Rev number
16,000

§ Raw data

EXO-01 59175U 23174DK  26265.69417931  .00006686  00000+0  19183-3 0  99952 59175  97.3760 345.9937 0009001 171.4346 188.7053 15.36168590160000

JSON: /api/v1/satellites/59175 · /tle

For live sub-satellite position, see the globe view (requires WebGL).

§ Visibility from observer

Set your observer location to see the next 7 days of passes ≥ 10°. The values pass through the URL so the page stays shareable.

No JS? Fill the form by hand. The geolocation button needs JavaScript.

§ Radio — SatNOGS DB

ModeDescriptionDownlinkUplink
GMSK UHF 4k8 Telemetry 401.360 MHz

1 transmitter · refreshed weekly from db.satnogs.org